Dewpoint
13 12 12 12 10 8 9 9 8 9 9 9 9 9 8 9 9 9 10 10 11 11 11 11 11 11 11 11 11 12 12 13 13 13 14 14 13 13 13 13 13 13
13 13 13 13 12 11 10 10 10 10 9 9 9 9 9 9 9 9 10 10 10 11 11 11 11 10 10 10 11 11 12 13 13 13 13 13 13 13 13 13 13 13
14 14 14 13 13 12 12 11 10 10 10 9 9 9 9 9 9 9 9 9 10 10 11 11 11 10 9 10 10 10 11 12 12 13 13 13 13 13 13 14 14 13
14 14 14 13 13 13 12 12 12 11 11 10 9 9 9 9 9 9 9 9 9 9 10 10 10 10 10 9 9 10 10 11 11 12 13 13 13 13 13 14 14 14
14 14 14 14 13 13 13 13 13 12 11 10 9 9 9 9 10 9 9 9 9 9 9 9 10 9 10 9 9 9 9 9 10 11 12 12 12 12 12 13 13 13
14 14 14 14 14 14 13 13 13 12 11 10 10 10 9 9 10 9 9 9 9 9 9 9 9 9 9 9 9 9 8 9 9 9 10 10 11 11 12 12 12 12
14 14 14 14 14 14 14 13 13 12 11 11 10 10 10 9 10 10 9 9 9 9 9 9 9 9 9 9 9 9 9 9 9 9 8 9 9 9 10 11 11 11
14 14 14 14 14 14 14 13 13 12 11 11 10 10 10 10 10 9 9 8 8 8 8 8 8 9 9 9 9 8 8 9 9 9 9 8 8 8 8 9 10 10
14 14 14 14 14 14 14 13 13 12 11 11 10 10 9 9 9 9 9 8 8 8 8 8 8 8 8 8 8 8 8 9 9 9 9 9 8 8 8 9 9 9
14 14 14 14 14 14 14 14 13 12 11 11 10 10 10 9 9 9 8 8 8 8 8 8 7 7 7 7 7 8 8 8 8 9 9 8 8 8 8 9 9 8
13 14 14 14 14 14 14 13 13 12 11 10 10 10 9 9 9 9 9 8 8 8 8 8 7 7 6 7 7 8 8 8 8 8 8 8 8 8 8 8 8 8
14 14 14 14 13 14 14 13 13 13 11 10 10 10 9 8 8 8 8 8 8 8 7 7 7 6 6 6 7 7 7 7 8 7 7 7 8 7 7 7 7 6
13 13 13 13 14 14 14 13 14 13 12 11 10 9 9 8 8 8 8 7 7 7 7 6 6 6 5 5 5 6 6 6 6 6 6 6 6 6 6 6 5 5
13 13 13 13 13 13 14 14 14 13 13 12 11 10 9 8 8 7 6 7 7 6 6 5 5 6 5 5 4 5 6 6 5 5 5 5 5 5 5 5 4 4
13 13 13 13 13 13 13 13 14 13 13 13 12 11 10 8 8 7 6 6 6 5 5 5 5 5 4 4 4 4 5 5 5 5 4 4 4 4 5 5 4 3
13 13 13 13 13 13 13 13 13 13 13 13 12 12 10 9 8 8 6 6 5 4 4 5 5 5 4 4 4 3 4 4 4 4 4 4 4 3 3 3 3 3
13 13 13 13 13 13 13 13 13 13 13 13 13 12 11 10 8 8 6 5 5 5 4 5 4 4 4 3 4 4 4 3 3 3 4 4 3 3 2 2 3 3
13 13 13 13 13 13 13 13 13 13 13 13 14 13 12 11 10 8 6 5 5 4 4 5 4 3 3 3 3 3 3 3 3 2 3 3 3 2 2 2 2 2
13 13 13 13 13 13 13 13 13 13 13 13 13 14 13 13 12 10 8 7 6 4 4 4 3 2 2 2 2 2 2 2 2 2 2 2 2 2 2 2 2 2
14 13 13 13 13 13 13 13 13 13 13 13 14 14 14 14 14 13 11 9 7 6 4 4 4 3 1 1 1 1 1 2 2 2 2 1 1 1 1 1 1 1
14 13 13 13 13 13 13 13 13 13 13 13 13 14 14 14 14 14 13 12 9 7 6 5 4 3 2 1 1 1 1 2 2 2 1 1 1 0 0 1 1 1
13 13 13 13 13 13 13 13 13 13 13 13 14 14 14 14 14 14 14 13 12 11 9 7 4 3 3 2 2 3 3 3 2 2 2 1 1 0 1 0 1 2
13 13 12 12 13 13 13 13 13 13 13 13 13 14 14 14 14 14 14 14 13 13 12 10 6 5 4 4 3 4 5 4 3 3 3 2 1 1 1 2 2 2
13 13 12 12 12 12 13 13 13 13 13 13 13 14 14 14 14 14 15 15 15 15 14 13 11 9 7 7 7 7 7 6 5 5 5 3 2 2 2 2 3 3
13 13 13 13 13 13 13 13 13 13 13 14 14 14 14 15 15 15 15 16 16 16 16 16 15 14 12 11 11 11 11 10 9 8 7 6 4 4 3 4 4 4
13 13 13 13 13 13 13 13 13 14 14 14 14 15 15 15 15 16 16 16 16 17 17 17 16 16 15 14 14 14 14 13 13 12 11 9 7 7 7 7 7 7
Wind_Speed
32 32 31 31 31 32 31 30 29 29 28 26 24 23 22 21 20 19 19 18 18 17 16 15 14 13 12 12 13 13 13 13 13 12 11 11 10 10 10 10 10 10
32 32 32 31 31 31 31 30 29 29 28 27 26 24 23 21 20 19 19 18 18 18 17 16 15 14 14 13 13 14 14 14 14 13 12 12 11 11 11 10 10 11
32 33 33 32 32 31 31 30 30 29 28 27 27 25 24 22 21 20 19 18 18 18 17 17 16 15 15 15 14 15 15 15 15 14 14 13 13 12 11 11 11 11
33 32 33 33 33 32 31 31 30 30 29 29 28 27 25 24 22 21 20 19 19 19 18 17 17 16 16 16 16 16 16 16 16 15 15 15 15 14 12 11 11 11
34 32 32 32 33 33 32 31 31 30 30 29 29 28 27 25 24 22 22 21 20 19 19 19 18 18 17 17 17 18 18 18 17 17 17 16 16 16 14 13 12 12
35 34 32 32 32 33 32 31 31 30 29 29 29 29 28 26 25 24 23 21 20 20 20 20 20 19 19 19 19 20 20 19 19 18 18 17 17 17 16 15 14 13
36 35 33 32 31 31 32 32 31 30 29 28 28 28 28 27 26 25 23 22 21 21 20 20 20 20 20 21 21 22 21 21 20 20 19 19 18 18 17 16 15 15
36 36 34 33 32 31 31 31 31 30 29 28 28 28 28 27 27 25 24 23 23 22 22 21 20 20 21 21 22 23 23 22 21 20 20 20 20 19 18 17 17 16
36 36 35 34 33 32 31 31 31 30 29 28 27 27 27 27 27 26 26 25 25 24 23 22 21 21 21 22 23 23 23 23 22 21 21 20 20 20 19 18 18 17
37 35 35 35 34 33 32 31 31 31 31 29 28 27 27 27 27 27 27 27 27 26 25 24 23 22 21 22 22 23 23 23 23 22 21 21 21 20 20 19 19 18
38 36 36 36 35 34 33 31 31 31 31 31 30 29 28 28 27 28 28 29 29 28 27 26 26 24 23 23 22 23 23 23 23 23 22 22 22 21 21 21 20 20
40 39 38 36 35 34 33 32 31 31 31 31 31 31 30 30 29 29 30 30 29 29 28 28 27 27 26 24 24 24 24 23 23 23 23 24 24 23 23 22 21 21
42 40 38 37 35 34 33 32 32 31 30 30 30 31 31 31 31 32 32 31 30 30 29 29 29 28 28 27 26 26 25 25 24 24 25 25 25 25 24 23 22 21
43 40 38 36 35 34 34 33 32 31 30 29 29 30 31 31 32 33 33 32 31 31 30 29 29 29 29 28 28 27 27 26 26 26 26 26 26 25 24 24 23 22
43 41 38 37 36 35 34 33 32 31 30 29 29 29 29 30 30 31 31 31 31 31 31 30 30 30 30 30 29 28 28 27 27 27 27 27 27 26 25 25 24 24
42 41 38 38 37 36 35 34 33 32 31 30 29 29 29 29 29 29 29 30 30 31 31 31 31 31 31 30 29 28 28 28 28 28 28 28 28 27 27 26 25 25
42 41 39 38 38 37 36 35 34 33 32 32 31 30 30 30 30 30 30 30 31 31 32 33 33 32 31 30 29 29 28 28 29 29 29 29 29 29 28 27 27 27
41 41 41 40 39 38 37 36 35 34 34 33 32 32 31 31 31 31 31 31 31 32 33 34 34 33 32 31 30 29 29 28 29 29 30 30 30 30 29 29 28 28
41 41 40 40 39 38 37 36 36 36 35 35 34 33 33 33 33 32 32 32 33 33 34 34 35 34 32 31 31 30 29 29 29 30 31 31 31 31 31 30 30 29
41 40 40 39 38 37 37 36 36 36 36 35 34 34 34 34 33 33 33 33 33 34 35 35 35 35 33 32 31 31 30 30 30 31 32 32 32 32 32 31 31 30
40 39 38 38 37 37 36 37 37 37 36 35 35 35 35 33 33 33 33 33 33 34 35 36 36 35 34 33 32 32 31 31 31 32 33 33 34 33 33 33 32 31
39 37 37 36 35 36 36 36 37 36 35 35 35 35 35 34 33 33 33 33 32 33 34 35 36 35 34 33 32 32 31 31 32 33 34 34 34 34 34 33 33 32
38 36 35 34 34 35 35 35 35 35 34 34 35 35 35 35 34 33 33 32 32 33 33 34 34 34 34 33 32 31 31 31 33 33 34 35 35 34 34 34 33 32
38 36 34 34 34 34 34 34 35 34 34 34 35 35 35 34 33 32 32 33 33 33 33 33 33 33 33 32 31 31 30 31 33 34 34 35 35 34 34 34 33 31
36 35 34 33 34 33 33 33 32 32 32 33 33 33 33 33 32 32 33 32 32 31 31 31 31 31 32 31 30 30 30 31 32 33 34 35 34 34 34 33 32 30
33 33 33 33 32 31 30 29 29 28 30 31 31 31 31 31 32 32 32 31 30 30 30 30 29 29 29 29 28 27 28 29 30 32 33 33 33 32 32 30 29 28
Wind_Direction
222 223 224 226 226 227 228 229 229 229 228 228 228 229 229 230 231 231 232 232 232 232 232 233 233 234 236 237 239 240 242 247 252 256 257 254 250 245 242 241 241 243
223 223 224 225 226 227 228 229 229 230 230 229 230 231 231 231 231 231 231 231 232 233 233 234 235 235 236 238 240 243 245 248 251 255 259 258 255 251 248 245 245 247
224 224 224 225 226 227 228 229 229 230 230 231 231 233 232 231 231 230 231 231 232 233 234 235 237 238 238 239 241 243 246 249 252 256 259 260 259 256 254 251 250 251
226 225 224 225 226 228 229 230 231 230 231 231 231 232 233 233 232 231 231 231 232 233 234 236 239 240 242 242 242 243 246 249 251 254 257 260 261 261 258 256 255 256
227 227 226 225 226 228 229 231 232 232 231 231 231 232 233 233 233 233 233 232 233 234 235 237 239 241 244 244 244 245 246 248 249 252 256 259 262 264 263 261 261 262
228 227 227 226 227 228 229 231 232 232 231 231 231 232 232 233 233 234 234 234 234 235 236 238 239 241 243 244 245 245 245 247 248 250 254 258 261 265 266 265 265 266
227 228 227 228 229 229 230 230 231 231 231 231 231 231 231 232 233 234 234 235 235 236 237 237 239 239 241 243 244 245 246 246 247 249 252 255 259 262 264 266 267 267
227 228 228 228 229 230 231 231 231 231 231 231 231 230 231 231 232 233 234 235 236 237 237 237 238 238 239 241 242 244 245 247 248 249 251 255 258 261 263 265 266 268
227 228 227 228 229 230 231 232 232 231 230 230 229 230 230 229 230 231 232 234 236 237 236 236 236 236 237 239 240 242 244 246 247 249 252 255 257 260 261 262 265 266
226 227 227 227 227 229 230 231 232 232 231 230 229 230 229 228 229 230 231 233 235 236 235 235 235 235 237 238 239 241 242 244 245 247 250 253 255 257 259 260 262 264
225 225 226 226 227 228 229 230 231 233 232 230 230 231 230 229 229 229 231 233 234 236 235 234 235 235 236 237 238 240 241 242 244 246 249 252 254 256 258 259 260 261
224 225 225 225 226 227 227 228 230 232 233 231 231 232 231 231 231 231 233 234 235 236 236 236 236 236 237 237 237 238 240 241 243 245 248 251 254 256 258 258 258 259
224 225 225 225 226 226 227 228 229 230 232 231 232 232 233 233 234 234 235 236 238 238 238 237 237 237 237 236 237 238 239 241 244 246 249 251 253 255 257 258 258 259
224 225 226 226 227 227 228 229 229 230 231 231 231 232 233 234 235 236 237 238 240 239 238 238 238 238 237 236 236 238 239 241 243 246 249 250 252 254 255 257 259 260
224 225 226 227 228 228 228 229 230 230 231 232 232 232 232 233 235 237 238 239 240 239 239 239 239 238 237 236 236 237 239 241 243 245 248 250 252 254 255 256 258 260
223 224 225 226 227 228 229 229 230 231 231 232 232 232 232 233 234 236 238 239 239 239 240 240 240 239 238 237 237 238 239 242 244 246 247 250 253 254 255 256 257 259
222 223 225 226 227 228 229 229 230 231 231 231 232 232 232 232 233 235 236 238 239 240 240 241 242 241 240 239 239 239 240 243 244 246 248 250 252 254 255 257 258 260
221 223 225 226 227 228 229 230 231 232 232 232 232 232 232 232 233 233 234 236 239 240 241 243 243 242 242 241 241 240 241 243 245 247 249 250 251 254 256 258 259 261
221 223 225 226 228 229 230 231 232 233 233 233 233 234 234 235 234 234 234 235 237 239 242 243 244 243 242 241 241 241 241 243 245 247 249 251 252 254 256 258 260 262
221 223 225 227 228 229 231 232 233 234 235 235 236 236 237 237 236 236 236 235 236 239 241 243 244 244 242 241 242 242 243 244 246 248 250 252 253 255 257 259 261 263
221 223 225 227 228 229 231 232 234 235 235 235 236 237 238 239 238 239 239 238 237 238 240 242 243 243 242 242 241 242 244 246 247 249 251 253 254 256 257 259 261 264
220 222 224 226 228 229 231 233 234 234 235 235 236 238 240 240 240 241 242 242 240 240 241 242 242 242 243 242 241 243 245 246 247 249 251 252 254 256 258 260 262 264
220 221 222 224 226 228 229 231 232 233 234 234 236 237 239 241 242 242 243 244 243 242 243 243 242 242 242 242 242 242 244 245 247 248 251 252 253 255 257 260 261 263
221 221 222 223 224 226 228 229 231 232 233 235 236 238 240 242 243 244 245 245 245 245 246 245 244 243 242 241 241 242 243 244 245 248 250 251 252 254 256 258 260 262
223 223 224 225 226 228 229 231 233 234 235 237 238 240 242 243 245 246 247 247 247 248 248 248 248 247 245 243 242 243 243 244 245 248 249 250 251 253 255 257 259 260
225 225 226 227 228 229 231 232 233 234 235 237 238 239 241 242 243 245 246 247 247 248 249 249 248 248 247 245 243 243 243 244 246 247 248 250 251 253 255 257 258 258
Height
1554 1556 1558 1561 1563 1566 1568 1571 1573 1575 1578 1579 1581 1583 1584 1586 1588 1589 1590 1592 1593 1594 1595 1596 1597 1598 1600 1600 1602 1602 1603 1604 1605 1606 1606 1607 1608 1608 1609 1610 1610 1611
1551 1553 1556 1558 1561 1563 1566 1568 1571 1573 1575 1577 1579 1581 1582 1584 1586 1587 1589 1590 1591 1592 1594 1595 1596 1597 1598 1599 1600 1601 1602 1602 1603 1604 1605 1606 1607 1607 1608 1609 1609 1610
1548 1550 1553 1556 1558 1561 1563 1566 1568 1570 1573 1575 1577 1579 1580 1582 1584 1585 1587 1588 1589 1591 1592 1593 1594 1595 1597 1597 1598 1599 1600 1601 1602 1603 1604 1604 1605 1606 1607 1608 1608 1609
1545 1548 1550 1553 1556 1558 1561 1563 1565 1568 1570 1572 1574 1576 1578 1580 1582 1583 1585 1586 1587 1589 1590 1591 1593 1594 1595 1596 1597 1598 1598 1599 1600 1601 1602 1602 1603 1604 1605 1606 1607 1607
1543 1545 1548 1551 1553 1555 1558 1560 1562 1565 1567 1570 1572 1574 1575 1578 1579 1581 1582 1584 1585 1587 1588 1590 1591 1592 1593 1594 1595 1596 1597 1598 1598 1599 1600 1601 1601 1602 1603 1604 1605 1606
1540 1542 1545 1548 1550 1553 1555 1557 1560 1562 1565 1567 1569 1571 1573 1575 1577 1578 1580 1582 1583 1585 1586 1588 1589 1590 1591 1592 1593 1594 1595 1596 1596 1597 1598 1599 1600 1600 1601 1602 1603 1604
1536 1539 1542 1545 1547 1550 1552 1554 1557 1559 1562 1564 1566 1568 1570 1572 1574 1576 1578 1579 1581 1582 1584 1585 1587 1588 1589 1590 1591 1592 1593 1594 1594 1595 1596 1597 1598 1598 1599 1601 1601 1602
1533 1536 1539 1542 1544 1547 1549 1551 1553 1556 1559 1561 1563 1566 1567 1570 1572 1573 1575 1577 1578 1580 1581 1583 1584 1586 1587 1588 1589 1590 1591 1592 1593 1593 1594 1595 1595 1596 1597 1599 1599 1600
1530 1533 1536 1539 1541 1544 1546 1548 1550 1553 1555 1558 1560 1563 1565 1567 1569 1571 1573 1574 1575 1577 1578 1580 1582 1583 1584 1585 1586 1588 1588 1590 1591 1591 1592 1593 1593 1594 1595 1597 1597 1598
1527 1529 1533 1535 1538 1540 1542 1545 1548 1550 1552 1555 1557 1560 1562 1564 1566 1568 1570 1571 1573 1574 1576 1578 1579 1580 1582 1583 1584 1585 1586 1587 1588 1589 1590 1591 1591 1592 1593 1594 1595 1596
1523 1526 1529 1531 1534 1537 1539 1542 1545 1547 1549 1552 1554 1557 1559 1561 1563 1565 1566 1568 1569 1571 1573 1575 1576 1578 1579 1580 1582 1583 1584 1585 1586 1587 1588 1589 1589 1590 1591 1592 1593 1593
1519 1522 1525 1527 1531 1534 1536 1539 1542 1544 1546 1549 1551 1553 1556 1558 1560 1561 1563 1565 1567 1568 1570 1572 1573 1575 1576 1577 1579 1580 1581 1583 1584 1585 1586 1586 1587 1588 1589 1590 1590 1591
1515 1518 1521 1524 1527 1530 1533 1536 1538 1541 1543 1545 1548 1550 1552 1554 1556 1558 1560 1562 1564 1565 1567 1569 1570 1571 1573 1574 1576 1577 1578 1580 1581 1582 1583 1583 1584 1585 1586 1587 1587 1588
1511 1514 1518 1521 1524 1527 1530 1533 1535 1538 1540 1542 1545 1547 1549 1551 1553 1554 1556 1558 1560 1562 1564 1565 1567 1568 1569 1571 1573 1574 1576 1577 1578 1579 1580 1581 1581 1582 1583 1584 1585 1585
1507 1511 1515 1518 1521 1524 1527 1530 1532 1535 1537 1539 1541 1544 1546 1548 1550 1551 1553 1555 1557 1558 1560 1562 1563 1564 1565 1567 1569 1571 1573 1574 1575 1576 1577 1578 1579 1580 1581 1581 1582 1583
1504 1508 1511 1514 1517 1520 1523 1526 1529 1531 1534 1536 1538 1540 1542 1544 1546 1548 1549 1551 1553 1555 1556 1558 1559 1560 1562 1564 1566 1568 1570 1571 1572 1573 1574 1575 1576 1576 1577 1578 1579 1580
1500 1504 1507 1510 1513 1517 1520 1522 1525 1528 1530 1532 1534 1536 1538 1540 1542 1544 1546 1548 1549 1551 1553 1554 1555 1556 1558 1561 1563 1565 1566 1568 1569 1570 1571 1571 1572 1573 1574 1575 1576 1576
1496 1500 1503 1506 1510 1513 1516 1519 1522 1524 1526 1528 1530 1532 1534 1536 1538 1540 1542 1544 1546 1547 1549 1550 1551 1553 1555 1557 1559 1561 1563 1564 1565 1566 1567 1567 1568 1569 1570 1571 1572 1573
1493 1496 1499 1502 1506 1509 1512 1515 1518 1520 1522 1524 1527 1529 1531 1532 1534 1536 1538 1540 1542 1543 1545 1546 1548 1550 1552 1554 1555 1557 1559 1561 1562 1562 1563 1564 1565 1565 1566 1567 1568 1569
1489 1492 1496 1499 1502 1506 1509 1511 1514 1516 1518 1521 1523 1525 1527 1528 1530 1532 1534 1536 1537 1539 1541 1542 1544 1546 1548 1550 1552 1553 1555 1557 1558 1558 1559 1560 1560 1561 1562 1563 1564 1565
1485 1489 1492 1495 1499 1502 1505 1507 1510 1512 1515 1517 1520 1521 1523 1525 1527 1529 1530 1532 1534 1535 1537 1538 1540 1542 1544 1546 1548 1550 1551 1553 1554 1554 1555 1555 1556 1557 1558 1559 1560 1561
1481 1485 1488 1491 1495 1498 1500 1503 1505 1508 1511 1514 1516 1518 1520 1521 1523 1525 1526 1528 1530 1531 1532 1534 1536 1538 1540 1542 1544 1546 1547 1548 1549 1550 1550 1551 1552 1553 1554 1555 1556 1556
1478 1481 1484 1488 1491 1494 1496 1499 1502 1505 1507 1510 1512 1514 1516 1517 1519 1521 1523 1524 1526 1527 1528 1529 1531 1533 1535 1537 1540 1541 1543 1544 1545 1545 1546 1546 1547 1549 1550 1550 1551 1552
1474 1478 1481 1484 1487 1489 1492 1495 1498 1501 1504 1506 1508 1510 1512 1514 1516 1518 1519 1520 1522 1523 1524 1526 1527 1529 1531 1533 1535 1537 1538 1539 1540 1541 1541 1542 1543 1544 1545 1546 1546 1548
1472 1475 1478 1480 1483 1485 1489 1492 1494 1498 1500 1502 1505 1507 1509 1511 1512 1514 1515 1516 1518 1519 1520 1522 1523 1525 1526 1528 1530 1532 1533 1535 1535 1536 1536 1537 1538 1539 1540 1541 1542 1543
1469 1472 1474 1477 1479 1482 1486 1489 1491 1494 1496 1499 1501 1503 1505 1507 1508 1510 1511 1512 1514 1515 1516 1518 1519 1521 1522 1524 1526 1527 1528 1530 1531 1530 1531 1532 1533 1535 1535 1536 1537 1538